Location: *
(57.8420°S, 159.8600°W)
Time: 03:35:09
(UTC+00:00)

Cosmos 2219 Rocket - Pass Details

Date: 18 May 2021
Orbit: 827 x 847 km, 71.0° (Epoch: 23 June)

Event Time Altitude Azimuth Distance (km) Brightness Sun altitude
Rises 03:01:09 0° 354° (N) 3,381 5.9 -4.7°
Reaches altitude 10° 03:03:43 10° 1° (N) 2,452 5.0 -5.0°
Maximum altitude 03:08:54 39° 68° (ENE) 1,240 2.8 -5.6°
Drops below altitude 10° 03:14:07 10° 135° (SE) 2,472 4.0 -6.2°
Enters shadow 03:15:13 - 139° (SE) 2,870 4.4 -6.4°
